Delta Virtual Airport Information Service

New York John F. Kennedy International Airport

ICAO: KJFK Country: United States
Latitude: 40.6398 Longitude: -73.7789
Latest Arrival : JBU262371 (TJSJ-KJFK) Latest Departure : DAC007 (KJFK-SEQM)


WX CaptureLIVE
Data provided by noaa.gov | Fetched at 03:00:48

METAR : KJFK 300751Z 08006KT 10SM SCT027 OVC210 03/00 A3020 RMK AO2 SLP225 T00330000 $

TAF : KJFK 300751Z 08006KT 10SM SCT027 OVC210 03/00 A3020 RMK AO2 SLP225 T00330000 $


Runway Data for KJFK
Data provided by openaviationdata.com

Runway ID Mag Var Hdg Length Elevation Surface ILS Freq ILS Id ILS Slope
04L -14 44° 11353 ft 13 ft Asphalt 110.9 IHIQ 3
04R -14 44° 8401 ft 13 ft Asphalt 109.5 IJFK 3
13L -14 134° 9992 ft 13 ft Asphalt 111.5 ITLK 3
13R -14 134° 14564 ft 13 ft Asphalt -- -- --
22L -14 224° 8401 ft 13 ft Asphalt 110.9 IIWY 3
22R -14 224° 11353 ft 13 ft Asphalt 109.5 IJOC 3
31L -14 314° 14564 ft 13 ft Asphalt 111.35 IMOH 3
31R -14 314° 9992 ft 13 ft Asphalt 111.5 IRTH 3

New York John F. Kennedy International Airport, United States
Use only for reference purposes



Not for navigational purposes.